Location: Benque
(43.2594°N, 0.9178°E)
Time: 14:13:15
(UTC+00:00)

Cosmos 2219 - Pass Details

Date: 24 January 2020
Orbit: 833 x 861 km, 71.1° (Epoch: 26 February)

Event Time Altitude Azimuth Distance (km) Brightness Sun altitude
Rises 17:27:20 0° 202° (SSW) 3,363 7.0 -5.9°
Reaches altitude 10° 17:29:45 10° 202° (SSW) 2,434 6.3 -6.3°
Maximum altitude 17:35:21 87° 112° (ESE) 842 3.2 -7.3°
Drops below altitude 10° 17:41:00 10° 25° (NNE) 2,462 5.2 -8.3°
Sets 17:43:28 0° 26° (NNE) 3,404 5.9 -8.7°
